Skip Page Navigation
NASA JPL Caltech
NASA Logo - Jet Propulsion Laboratory + View the NASA Portal
+ Center for Near-Earth Object Studies
JPL Home Earth Solar System Stars & Galaxies Technology
JPL Solar System Dynamics
BODIES ORBITS EPHEMERIDES TOOLS PHYSICAL DATA DISCOVERY FAQ SITE MAP
IMPORTANT: The SSD Announcement email list is now available. Major changes are coming in the near future, including possible hostname and/or URL changes. To be notified of such changes, subscribe to this email list.

Please visit this page for more details.


JPL Small-Body Database Browser
Search: [ help ]  
(2019 YV1)
Classification: Apollo [NEO]          SPK-ID: 3943360
Ephemeris | Orbit Diagram | Orbital Elements | Mission Design | Physical Parameters | Close-Approach Data ]

[ show orbit diagram ]
Orbital Elements at Epoch 2459000.5 (2020-May-31.0) TDB
Reference: JPL 15 (heliocentric ecliptic J2000)
 Element Value Uncertainty (1-sigma)   Units 
e .1144953987074274 1.9356e-05  
a 1.016512511523559 9.7278e-06 au
q .9001265062255809 1.107e-05 au
i 8.658240618626666 0.0013637 deg
node 88.21030206860621 0.00016475 deg
peri 274.2921531445619 0.00099674 deg
M 227.7707881003511 0.0053624 deg
tp 2459137.996748525062
(2020-Oct-15.49674853)
0.0075497 TDB
period 374.3411063100634
1.02
0.0053735
1.471e-05
d
yr
n .961689736798008 1.3805e-05 deg/d
Q 1.132898516821537 1.0842e-05 au
  Orbit Determination Parameters
   # obs. used (total)      94  
   data-arc span      44 days  
   first obs. used      2019-12-21  
   last obs. used      2020-02-03  
   planetary ephem.      DE431  
   SB-pert. ephem.      SB431-N16  
   condition code      5  
   norm. resid. RMS      .30083  
   source      ORB  
   producer      Otto Matic  
   solution date      2020-Feb-15 05:01:31  

Additional Information
 Earth MOID = .00323443 au 
 Jupiter MOID = 4.059 au 
 T_jup = 5.987 
[ hide covariance matrix ]
Orbital Elements at Epoch 2458857.5 (2020-Jan-09.0) TDB
Reference: JPL 15 (heliocentric ecliptic J2000)
 Element Value Uncertainty (1-sigma)   Units 
e .1146409536990379 1.9297e-05  
q .8998606913824863 1.0954e-05 au
tp 2458763.685447923431
(2019-Oct-07.18544792)
0.0021705 TDB
node 88.23274483884013 0.00017524 deg
peri 274.2581824297717 0.0010176 deg
i 8.662636239589851 0.0013624 deg
  Orbit Determination Parameters
   # obs. used (total)      94  
   data-arc span      44 days  
   first obs. used      2019-12-21  
   last obs. used      2020-02-03  
   planetary ephem.      DE431  
   SB-pert. ephem.      SB431-N16  
   condition code      5  
   norm. resid. RMS      .30083  
   source      ORB  
   producer      Otto Matic  
   solution date      2020-Feb-15 05:01:31  

Additional Information
 Jupiter MOID = 4.059 au 
 T_jup = 5.987 
Orbit Covariance (6×6)
  e q tp node peri i
e 3.723849115200103E-10 -2.113092715576725E-10 4.183963642657548E-8 -3.378850567727398E-9 1.94579503283154E-8 2.629091108229485E-8
q -2.113092715576725E-10 1.199833135530587E-10 -2.371402172599248E-8 1.915896358744333E-9 -1.10035708748508E-8 -1.491742292968591E-8
tp 4.183963642657548E-8 -2.371402172599248E-8 4.711207076455687E-6 -3.801229481654951E-7 2.200126382251571E-6 2.954378926034418E-6
node -3.378850567727398E-9 1.915896358744333E-9 -3.801229481654951E-7 3.07085896493865E-8 -1.772488981701577E-7 -2.385793660674734E-7
peri 1.94579503283154E-8 -1.10035708748508E-8 2.200126382251571E-6 -1.772488981701577E-7 1.035596618413277E-6 1.37436953100544E-6
i 2.629091108229485E-8 -1.491742292968591E-8 2.954378926034418E-6 -2.385793660674734E-7 1.37436953100544E-6 1.8562378968643E-6

Ephemeris | Orbit Diagram | Orbital Elements | Mission Design | Physical Parameters | Close-Approach Data ]

Physical Parameter Table
Parameter Symbol Value Units Sigma Reference Notes
absolute magnitude H 25.1   .40702 E2020A92 autocmod 2.8

[ show close-approach data ]
Ephemeris | Orbit Diagram | Orbital Elements | Mission Design | Physical Parameters | Close-Approach Data ]
ABOUT SSD CREDITS/AWARDS PRIVACY/COPYRIGHT GLOSSARY LINKS
FirstGov 2020-Feb-16 22:35 UT
(server date/time)  
NASA Home Page
Site Manager:   Ryan S. Park
Webmaster  Alan B. Chamberlin